Hourly Data Report for July 11, 2021

VINELAND STATION RCS
ONTARIO
Current Station Operator: ECCC - MSC

43°11'00.000" N
79°24'00.000" W
79.20 m
6139148
71171
XVN

Download Data

Hourly Data (July 2021)
Hourly Data Report for July 11, 2021
TIME
LST
Temp Definition
°C
Dew Point Definition
°C
Rel Hum Definition
%
Precip. Amount Definition
mm

Wind Dir Definition
10's deg

Wind Spd Definition
km/h
Visibility Definition
km
Stn Press Definition
kPa
Hmdx Definition


Wind Chill Definition


Weather Definition


00:00 16.6 15.1 91 LegendMM 18 1   100.76     LegendNANA
01:00 16.6 15.1 91 LegendMM 22 2   100.73     LegendNANA
02:00 16.6 15.0 90 LegendMM 25 3   100.72     LegendNANA
03:00 16.8 15.5 92 LegendMM 0 1   100.68     LegendNANA
04:00 16.6 15.4 93 LegendMM 20 6   100.64     LegendNANA
05:00 16.9 15.8 94 LegendMM 22 2   100.67     LegendNANA
06:00 18.0 16.9 93 LegendMM   0   100.67     LegendNANA
07:00 19.0 17.0 88 LegendMM 11 2   100.67     LegendNANA
08:00 19.5 16.9 85 LegendMM 9 2   100.67     LegendNANA
09:00 19.5 17.8 90 LegendMM 1 4   100.66     LegendNANA
10:00 19.4 17.5 89 LegendMM 4 4   100.66     LegendNANA
11:00 19.4 17.8 90 LegendMM 31 1   100.76     LegendNANA
12:00 19.6 18.6 94 LegendMM 3 6   100.75     LegendNANA
13:00 20.3 19.3 94 LegendMM 6 5   100.71 27   LegendNANA
14:00 20.1 18.5 90 LegendMM 6 8   100.70 26   LegendNANA
15:00 19.7 18.4 92 LegendMM 4 12   100.65     LegendNANA
16:00 19.7 18.2 91 LegendMM 6 11   100.65     LegendNANA
17:00 19.4 18.2 93 LegendMM 4 14   100.63     LegendNANA
18:00 19.8 18.6 93 LegendMM 6 13   100.61     LegendNANA
19:00 19.5 18.2 92 LegendMM 5 15   100.58     LegendNANA
20:00 19.8 18.3 91 LegendMM 7 16   100.61     LegendNANA
21:00 19.7 17.8 88 LegendMM 6 9   100.64     LegendNANA
22:00 19.6 18.0 90 LegendMM 5 9   100.64     LegendNANA
23:00 19.5 17.4 88 LegendMM 7 11   100.68     LegendNANA

Notes on Data Quality.

Legend

  • E = Estimated
  • M = Missing
  • NA = Not Available*
  • [empty] = Indicates an unobserved value
Date modified: